Location: Dal�� Lhota
(48.7500°N, 14.0167°E)
Time: 06:52:39
(UTC+00:00)

A-11 Canister half - Visible Passes

Search period start: 24 July 2021 00:00
Search period end: 03 August 2021 00:00
Orbit: 1527 x 1682 km, 47.3° (Epoch: 23 July)

Date Brightness Start Highest point End Pass type
(mag) Time Alt. Az. Time Alt. Az. Time Alt. Az.
24 Jul 10.2 19:19:58 10° W 19:27:58 31° SW 19:35:47 10° SSE visible
29 Jul 11.2 19:41:31 10° WSW 19:42:41 10° WSW 19:43:53 10° SW visible
30 Jul 11.1 19:18:33 10° WSW 19:21:09 11° WSW 19:23:44 10° SW visible
